Private Wetterstation Wechselburg
Wetterdaten: Mittwoch, 06.06.2012
Datum Zeit Temp. +2m Bodentemp. Temp.+5cm Temp. Wind Windchill X Diff Temp. Feuchte +2m Feuchte +5cm Sonnenschein Luftdruck Regen Wind Richtung Richtung Sonnenschein UV Taupunkt Windchill Windben
06.06.2012 00:00 8,8 C 18,1 C 11,1 C 8,6 C 8,1 C 0,0 C 85 % 94 % 0 % 1018,7 hPa 0,0 l/m 0,2 km/h (0 Bft) S 180 0 min 0,0 UV-I 6,4 C 8,1 C 0,0 km/h (0 Bft)
06.06.2012 00:11 8,5 C 18,1 C 10,8 C 8,2 C 7,6 C 0,0 C 85 % 94 % 0 % 1018,9 hPa 0,0 l/m 0,0 km/h (0 Bft) N 0 0 min 0,0 UV-I 6,1 C 7,6 C 0,0 km/h (0 Bft)
06.06.2012 00:25 8,2 C 18,1 C 10,7 C 7,8 C 6,9 C 0,0 C 85 % 93 % 0 % 1018,6 hPa 0,0 l/m 0,0 km/h (0 Bft) W-SW 247 0 min 0,0 UV-I 5,8 C 6,9 C 0,0 km/h (0 Bft)
06.06.2012 00:30 8,0 C 18,2 C 10,7 C 7,6 C 6,8 C 0,0 C 85 % 93 % 0 % 1018,6 hPa 0,0 l/m 0,2 km/h (0 Bft) W-SW 247 0 min 0,0 UV-I 5,6 C 6,8 C 0,0 km/h (0 Bft)
06.06.2012 00:35 7,8 C 18,1 C 10,7 C 7,4 C 6,6 C 0,0 C 85 % 93 % 0 % 1018,6 hPa 0,0 l/m 0,2 km/h (0 Bft) W-SW 247 0 min 0,0 UV-I 5,4 C 6,6 C 2,1 km/h (1 Bft)
06.06.2012 00:40 7,7 C 18,1 C 10,5 C 7,3 C 6,4 C 0,0 C 85 % 93 % 0 % 1018,6 hPa 0,0 l/m 0,0 km/h (0 Bft) W-SW 247 0 min 0,0 UV-I 5,3 C 6,4 C 0,0 km/h (0 Bft)
06.06.2012 00:45 7,5 C 18,1 C 10,5 C 7,1 C 6,2 C 0,0 C 86 % 94 % 0 % 1018,7 hPa 0,0 l/m 0,0 km/h (0 Bft) S-SW 202 0 min 0,0 UV-I 5,3 C 6,2 C 0,0 km/h (0 Bft)
06.06.2012 00:50 7,5 C 18,2 C 10,4 C 7,0 C 6,1 C 0,0 C 86 % 94 % 0 % 1018,7 hPa 0,0 l/m 0,0 km/h (0 Bft) S-SW 202 0 min 0,0 UV-I 5,3 C 6,1 C 0,0 km/h (0 Bft)
06.06.2012 00:55 7,3 C 18,1 C 10,4 C 6,8 C 5,9 C 0,0 C 86 % 94 % 0 % 1018,7 hPa 0,0 l/m 0,0 km/h (0 Bft) S-SW 202 0 min 0,0 UV-I 5,1 C 5,9 C 0,0 km/h (0 Bft)
06.06.2012 01:00 7,1 C 18,2 C 10,3 C 6,6 C 5,7 C 0,0 C 85 % 94 % 0 % 1018,7 hPa 0,0 l/m 0,0 km/h (0 Bft) S-SW 202 0 min 0,0 UV-I 4,8 C 5,7 C 0,0 km/h (0 Bft)
06.06.2012 01:04 6,8 C 18,1 C 10,2 C 6,3 C 5,3 C 0,0 C 86 % 94 % 0 % 1018,6 hPa 0,0 l/m 0,0 km/h (0 Bft) S-SW 202 0 min 0,0 UV-I 4,6 C 5,3 C 0,0 km/h (0 Bft)
06.06.2012 01:09 6,7 C 18,1 C 10,1 C 6,3 C 5,4 C 0,0 C 86 % 94 % 0 % 1018,6 hPa 0,0 l/m 0,0 km/h (0 Bft) W 270 0 min 0,0 UV-I 4,5 C 5,4 C 0,0 km/h (0 Bft)
06.06.2012 01:14 6,5 C 18,1 C 10,0 C 6,1 C 5,3 C 0,0 C 86 % 94 % 0 % 1018,6 hPa 0,0 l/m 0,0 km/h (0 Bft) SW 225 0 min 0,0 UV-I 4,3 C 5,3 C 0,0 km/h (0 Bft)
06.06.2012 01:21 6,5 C 18,1 C 10,0 C 6,1 C 5,2 C 0,0 C 86 % 94 % 0 % 1018,4 hPa 0,0 l/m 0,0 km/h (0 Bft) W 270 0 min 0,0 UV-I 4,3 C 5,2 C 0,0 km/h (0 Bft)
06.06.2012 01:25 6,5 C 18,1 C 10,0 C 6,1 C 5,2 C 0,0 C 86 % 94 % 0 % 1018,4 hPa 0,0 l/m 0,0 km/h (0 Bft) W 270 0 min 0,0 UV-I 4,3 C 5,2 C 0,0 km/h (0 Bft)
06.06.2012 01:30 6,3 C 18,1 C 9,9 C 5,9 C 5,0 C 0,0 C 86 % 94 % 0 % 1018,4 hPa 0,0 l/m 0,0 km/h (0 Bft) W 270 0 min 0,0 UV-I 4,1 C 5,0 C 0,0 km/h (0 Bft)
06.06.2012 01:35 6,1 C 18,1 C 9,9 C 5,7 C 4,8 C 0,0 C 87 % 94 % 0 % 1018,4 hPa 0,0 l/m 0,0 km/h (0 Bft) SW 225 0 min 0,0 UV-I 4,1 C 4,8 C 1,6 km/h (1 Bft)
06.06.2012 01:40 6,1 C 18,0 C 9,8 C 5,6 C 4,7 C 0,0 C 86 % 94 % 0 % 1018,4 hPa 0,0 l/m 0,0 km/h (0 Bft) W-SW 247 0 min 0,0 UV-I 3,9 C 4,7 C 0,0 km/h (0 Bft)
06.06.2012 01:45 5,9 C 18,1 C 9,7 C 5,5 C 4,7 C 0,0 C 87 % 94 % 0 % 1018,1 hPa 0,0 l/m 0,0 km/h (0 Bft) W-SW 247 0 min 0,0 UV-I 3,9 C 4,7 C 0,0 km/h (0 Bft)
06.06.2012 01:50 5,7 C 18,1 C 9,6 C 5,3 C 4,6 C 0,0 C 87 % 94 % 0 % 1018,1 hPa 0,0 l/m 0,0 km/h (0 Bft) W-SW 247 0 min 0,0 UV-I 3,7 C 4,6 C 0,0 km/h (0 Bft)
06.06.2012 01:55 5,6 C 18,2 C 9,6 C 5,2 C 4,4 C 0,0 C 87 % 94 % 0 % 1018,1 hPa 0,0 l/m 0,0 km/h (0 Bft) W-SW 247 0 min 0,0 UV-I 3,6 C 4,4 C 0,0 km/h (0 Bft)
06.06.2012 02:00 5,5 C 18,2 C 9,6 C 5,1 C 4,2 C 0,0 C 87 % 94 % 0 % 1018,1 hPa 0,0 l/m 0,0 km/h (0 Bft) W-SW 247 0 min 0,0 UV-I 3,5 C 4,2 C 0,0 km/h (0 Bft)
06.06.2012 02:04 5,3 C 18,2 C 9,5 C 4,9 C 4,0 C 0,0 C 87 % 94 % 0 % 1018,2 hPa 0,0 l/m 0,0 km/h (0 Bft) W-SW 247 0 min 0,0 UV-I 3,3 C 4,0 C 0,0 km/h (0 Bft)
06.06.2012 02:09 5,2 C 18,1 C 9,5 C 4,8 C 4,0 C 0,0 C 87 % 94 % 0 % 1018,2 hPa 0,0 l/m 0,0 km/h (0 Bft) W-SW 247 0 min 0,0 UV-I 3,2 C 4,0 C 0,0 km/h (0 Bft)
06.06.2012 02:14 5,2 C 18,1 C 9,4 C 4,8 C 4,0 C 0,0 C 87 % 94 % 0 % 1018,2 hPa 0,0 l/m 0,0 km/h (0 Bft) W-SW 247 0 min 0,0 UV-I 3,2 C 4,0 C 0,0 km/h (0 Bft)
06.06.2012 02:21 5,1 C 18,1 C 9,5 C 4,7 C 4,0 C 0,0 C 87 % 94 % 0 % 1017,4 hPa 0,0 l/m 0,0 km/h (0 Bft) W-SW 247 0 min 0,0 UV-I 3,1 C 4,0 C 0,0 km/h (0 Bft)
06.06.2012 02:25 5,1 C 18,1 C 9,5 C 4,7 C 4,0 C 0,0 C 87 % 94 % 0 % 1017,4 hPa 0,0 l/m 0,0 km/h (0 Bft) W-SW 247 0 min 0,0 UV-I 3,1 C 4,0 C 0,0 km/h (0 Bft)
06.06.2012 02:30 5,0 C 18,1 C 9,4 C 4,7 C 4,0 C 0,0 C 87 % 94 % 0 % 1017,4 hPa 0,0 l/m 0,0 km/h (0 Bft) W-SW 247 0 min 0,0 UV-I 3,0 C 4,0 C 0,0 km/h (0 Bft)
06.06.2012 02:35 4,9 C 18,1 C 9,3 C 4,5 C 3,8 C 0,0 C 87 % 94 % 0 % 1017,4 hPa 0,0 l/m 0,0 km/h (0 Bft) SW 225 0 min 0,0 UV-I 2,9 C 3,8 C 0,0 km/h (0 Bft)
06.06.2012 02:40 4,7 C 18,1 C 9,3 C 4,4 C 3,7 C 0,0 C 87 % 94 % 0 % 1017,4 hPa 0,0 l/m 0,0 km/h (0 Bft) W-SW 247 0 min 0,0 UV-I 2,7 C 3,7 C 0,0 km/h (0 Bft)
06.06.2012 02:45 4,7 C 18,1 C 9,1 C 4,3 C 3,5 C 0,0 C 87 % 94 % 0 % 1017,5 hPa 0,0 l/m 0,0 km/h (0 Bft) W-SW 247 0 min 0,0 UV-I 2,7 C 3,5 C 0,0 km/h (0 Bft)
06.06.2012 02:50 4,5 C 18,1 C 9,1 C 4,2 C 3,5 C 0,0 C 87 % 94 % 0 % 1017,5 hPa 0,0 l/m 0,0 km/h (0 Bft) W-SW 247 0 min 0,0 UV-I 2,5 C 3,5 C 0,0 km/h (0 Bft)
06.06.2012 02:55 4,4 C 18,1 C 9,2 C 4,1 C 3,5 C 0,0 C 88 % 94 % 0 % 1017,5 hPa 0,0 l/m 0,0 km/h (0 Bft) W-SW 247 0 min 0,0 UV-I 2,6 C 3,5 C 0,0 km/h (0 Bft)
06.06.2012 03:00 4,4 C 18,1 C 9,1 C 4,1 C 3,5 C 0,0 C 88 % 94 % 0 % 1017,5 hPa 0,0 l/m 0,0 km/h (0 Bft) W-SW 247 0 min 0,0 UV-I 2,6 C 3,5 C 0,0 km/h (0 Bft)
06.06.2012 03:04 4,5 C 18,1 C 9,1 C 4,2 C 3,5 C 0,0 C 88 % 94 % 0 % 1017,4 hPa 0,0 l/m 0,0 km/h (0 Bft) W-SW 247 0 min 0,0 UV-I 2,7 C 3,5 C 0,0 km/h (0 Bft)
06.06.2012 03:09 4,3 C 18,1 C 9,1 C 4,0 C 3,4 C 0,0 C 88 % 94 % 0 % 1017,4 hPa 0,0 l/m 0,0 km/h (0 Bft) W-SW 247 0 min 0,0 UV-I 2,5 C 3,4 C 0,0 km/h (0 Bft)
06.06.2012 03:14 4,3 C 18,1 C 9,1 C 4,0 C 3,3 C 0,0 C 88 % 94 % 0 % 1017,4 hPa 0,0 l/m 0,0 km/h (0 Bft) W-SW 247 0 min 0,0 UV-I 2,5 C 3,3 C 0,0 km/h (0 Bft)
06.06.2012 03:21 4,3 C 18,1 C 9,1 C 4,0 C 3,4 C 0,0 C 88 % 94 % 0 % 1017,4 hPa 0,0 l/m 0,0 km/h (0 Bft) S-SW 202 0 min 0,0 UV-I 2,5 C 3,4 C 0,0 km/h (0 Bft)
06.06.2012 03:25 4,3 C 18,1 C 9,1 C 4,0 C 3,4 C 0,0 C 88 % 94 % 0 % 1017,4 hPa 0,0 l/m 0,0 km/h (0 Bft) S-SW 202 0 min 0,0 UV-I 2,5 C 3,4 C 0,0 km/h (0 Bft)
06.06.2012 03:30 4,3 C 18,1 C 9,1 C 4,0 C 3,4 C 0,0 C 88 % 94 % 0 % 1017,4 hPa 0,0 l/m 0,0 km/h (0 Bft) S-SW 202 0 min 0,0 UV-I 2,5 C 3,4 C 0,0 km/h (0 Bft)
06.06.2012 03:35 4,1 C 18,0 C 9,1 C 3,9 C 3,5 C 0,0 C 89 % 94 % 0 % 1017,4 hPa 0,0 l/m 0,0 km/h (0 Bft) S-SW 202 0 min 0,0 UV-I 2,5 C 3,5 C 0,0 km/h (0 Bft)
06.06.2012 03:40 4,1 C 18,0 C 9,1 C 3,8 C 3,3 C 0,0 C 89 % 94 % 0 % 1017,4 hPa 0,0 l/m 0,0 km/h (0 Bft) W-SW 247 0 min 0,0 UV-I 2,5 C 3,3 C 0,0 km/h (0 Bft)
06.06.2012 03:45 4,0 C 18,0 C 8,8 C 3,7 C 3,1 C 0,0 C 88 % 94 % 0 % 1017,1 hPa 0,0 l/m 0,0 km/h (0 Bft) W-SW 247 0 min 0,0 UV-I 2,2 C 3,1 C 0,0 km/h (0 Bft)
06.06.2012 03:50 3,9 C 18,0 C 8,8 C 3,6 C 2,9 C 0,0 C 88 % 94 % 0 % 1017,1 hPa 0,0 l/m 0,0 km/h (0 Bft) W-SW 247 0 min 0,0 UV-I 2,1 C 2,9 C 0,0 km/h (0 Bft)
06.06.2012 03:55 3,9 C 18,0 C 8,9 C 3,5 C 2,8 C 0,0 C 88 % 94 % 0 % 1017,1 hPa 0,0 l/m 0,0 km/h (0 Bft) W-SW 247 0 min 0,0 UV-I 2,1 C 2,8 C 0,0 km/h (0 Bft)
06.06.2012 04:00 3,7 C 17,9 C 8,8 C 3,4 C 2,8 C 0,0 C 88 % 94 % 0 % 1017,1 hPa 0,0 l/m 0,0 km/h (0 Bft) W-SW 247 0 min 0,0 UV-I 1,9 C 2,8 C 0,0 km/h (0 Bft)
06.06.2012 04:04 3,5 C 17,9 C 8,7 C 3,2 C 2,6 C 0,0 C 88 % 94 % 0 % 1017,0 hPa 0,0 l/m 0,0 km/h (0 Bft) W-SW 247 0 min 0,0 UV-I 1,7 C 2,6 C 0,0 km/h (0 Bft)
06.06.2012 04:09 3,5 C 17,9 C 8,7 C 3,2 C 2,5 C 0,0 C 88 % 94 % 0 % 1017,0 hPa 0,0 l/m 0,0 km/h (0 Bft) W-SW 247 0 min 0,0 UV-I 1,7 C 2,5 C 0,0 km/h (0 Bft)
06.06.2012 04:14 3,5 C 17,9 C 8,6 C 3,2 C 2,6 C 0,0 C 88 % 94 % 0 % 1017,0 hPa 0,0 l/m 0,0 km/h (0 Bft) W-SW 247 0 min 0,0 UV-I 1,7 C 2,6 C 0,0 km/h (0 Bft)
06.06.2012 04:21 3,3 C 17,9 C 8,6 C 3,0 C 2,5 C 0,0 C 89 % 94 % 0 % 1017,0 hPa 0,0 l/m 0,0 km/h (0 Bft) SW 225 0 min 0,0 UV-I 1,7 C 2,5 C 0,0 km/h (0 Bft)
06.06.2012 04:30 3,3 C 17,9 C 8,7 C 3,0 C 2,5 C 0,0 C 89 % 94 % 0 % 1017,0 hPa 0,0 l/m 0,0 km/h (0 Bft) W-SW 247 0 min 0,0 UV-I 1,7 C 2,5 C 0,0 km/h (0 Bft)
06.06.2012 04:35 3,3 C 17,9 C 8,7 C 3,1 C 2,6 C 0,0 C 89 % 94 % 0 % 1017,0 hPa 0,0 l/m 0,0 km/h (0 Bft) W-SW 247 0 min 0,0 UV-I 1,7 C 2,6 C 0,0 km/h (0 Bft)
06.06.2012 04:40 3,3 C 17,9 C 8,7 C 3,1 C 2,6 C 0,0 C 89 % 94 % 0 % 1017,0 hPa 0,0 l/m 0,0 km/h (0 Bft) W-SW 247 0 min 0,0 UV-I 1,7 C 2,6 C 0,0 km/h (0 Bft)
06.06.2012 04:45 3,2 C 17,9 C 8,6 C 3,0 C 2,5 C 0,0 C 89 % 94 % 0 % 1016,9 hPa 0,0 l/m 0,0 km/h (0 Bft) W-SW 247 0 min 0,0 UV-I 1,6 C 2,5 C 0,0 km/h (0 Bft)
06.06.2012 04:50 3,3 C 17,9 C 8,6 C 3,1 C 2,6 C 0,0 C 89 % 94 % 0 % 1016,9 hPa 0,0 l/m 0,0 km/h (0 Bft) W-SW 247 0 min 0,0 UV-I 1,7 C 2,6 C 0,0 km/h (0 Bft)
06.06.2012 04:55 3,2 C 17,8 C 8,5 C 3,0 C 2,6 C 0,0 C 89 % 94 % 0 % 1016,9 hPa 0,0 l/m 0,0 km/h (0 Bft) W-SW 247 0 min 0,0 UV-I 1,6 C 2,6 C 0,0 km/h (0 Bft)
06.06.2012 05:00 3,3 C 17,8 C 8,4 C 3,1 C 2,6 C 0,0 C 89 % 94 % 0 % 1016,9 hPa 0,0 l/m 0,0 km/h (0 Bft) W-SW 247 0 min 0,0 UV-I 1,7 C 2,6 C 0,0 km/h (0 Bft)
06.06.2012 05:16 3,4 C 17,8 C 8,5 C 3,2 C 2,8 C 0,0 C 90 % 94 % 0 % 1016,7 hPa 0,0 l/m 0,0 km/h (0 Bft) W-SW 247 0 min 0,0 UV-I 1,9 C 2,8 C 0,0 km/h (0 Bft)
06.06.2012 05:19 3,4 C 17,8 C 8,5 C 3,2 C 2,8 C 0,0 C 90 % 94 % 0 % 1016,7 hPa 0,0 l/m 0,0 km/h (0 Bft) W-SW 247 0 min 0,0 UV-I 1,9 C 2,8 C 0,0 km/h (0 Bft)
06.06.2012 05:29 3,3 C 17,8 C 8,5 C 3,2 C 3,1 C 0,0 C 90 % 94 % 0 % 1016,7 hPa 0,0 l/m 0,0 km/h (0 Bft) W-SW 247 0 min 0,0 UV-I 1,8 C 3,1 C 0,0 km/h (0 Bft)
06.06.2012 05:30 3,3 C 17,8 C 8,5 C 3,2 C 3,1 C 0,0 C 90 % 94 % 0 % 1016,7 hPa 0,0 l/m 0,0 km/h (0 Bft) W-SW 247 0 min 0,0 UV-I 1,8 C 3,1 C 0,0 km/h (0 Bft)
06.06.2012 05:31 3,5 C 17,7 C 8,7 C 3,5 C 3,4 C 0,0 C 90 % 94 % 0 % 1016,7 hPa 0,0 l/m 0,0 km/h (0 Bft) SW 225 0 min 0,0 UV-I 2,0 C 3,4 C 0,0 km/h (0 Bft)
06.06.2012 05:32 3,5 C 17,7 C 8,7 C 3,5 C 3,4 C 0,0 C 90 % 94 % 0 % 1016,7 hPa 0,0 l/m 0,0 km/h (0 Bft) SW 225 0 min 0,0 UV-I 2,0 C 3,4 C 0,0 km/h (0 Bft)
06.06.2012 05:33 3,5 C 17,7 C 8,7 C 3,5 C 3,4 C 0,0 C 90 % 94 % 0 % 1016,7 hPa 0,0 l/m 0,0 km/h (0 Bft) SW 225 0 min 0,0 UV-I 2,0 C 3,4 C 0,0 km/h (0 Bft)
06.06.2012 05:34 3,5 C 17,7 C 8,5 C 3,5 C 3,5 C 0,0 C 90 % 94 % 0 % 1016,7 hPa 0,0 l/m 0,0 km/h (0 Bft) W 270 0 min 0,0 UV-I 2,0 C 3,5 C 0,0 km/h (0 Bft)
06.06.2012 05:37 3,5 C 17,7 C 8,5 C 3,5 C 3,5 C 0,0 C 90 % 94 % 0 % 1016,7 hPa 0,0 l/m 0,0 km/h (0 Bft) W 270 0 min 0,0 UV-I 2,0 C 3,5 C 0,0 km/h (0 Bft)
06.06.2012 05:40 3,5 C 17,7 C 8,5 C 3,5 C 3,5 C 0,0 C 90 % 94 % 0 % 1016,7 hPa 0,0 l/m 0,0 km/h (0 Bft) W 270 0 min 0,0 UV-I 2,0 C 3,5 C 0,0 km/h (0 Bft)
06.06.2012 05:45 3,6 C 17,7 C 8,7 C 3,7 C 3,7 C 0,1 C 90 % 94 % 3 % 1016,9 hPa 0,0 l/m 0,0 km/h (0 Bft) W-SW 247 0 min 0,0 UV-I 2,1 C 3,7 C 0,0 km/h (0 Bft)
06.06.2012 05:50 3,6 C 17,6 C 8,6 C 3,8 C 3,8 C 0,2 C 90 % 95 % 5 % 1016,9 hPa 0,0 l/m 0,0 km/h (0 Bft) W-SW 247 0 min 0,0 UV-I 2,1 C 3,8 C 0,0 km/h (0 Bft)
06.06.2012 05:55 3,6 C 17,7 C 8,7 C 4,0 C 4,0 C 0,4 C 90 % 94 % 11 % 1016,9 hPa 0,0 l/m 0,0 km/h (0 Bft) W-SW 247 0 min 0,0 UV-I 2,1 C 4,0 C 0,0 km/h (0 Bft)
06.06.2012 06:00 3,8 C 17,7 C 8,6 C 4,3 C 4,3 C 0,5 C 90 % 94 % 13 % 1016,9 hPa 0,0 l/m 0,0 km/h (0 Bft) W 270 0 min 0,0 UV-I 2,3 C 4,3 C 0,0 km/h (0 Bft)
06.06.2012 06:16 4,3 C 17,6 C 8,7 C 5,2 C 5,2 C 0,9 C 91 % 94 % 24 % 1016,6 hPa 0,0 l/m 0,2 km/h (0 Bft) W-SW 247 0 min 0,0 UV-I 3,0 C 5,2 C 0,0 km/h (0 Bft)
06.06.2012 06:19 4,3 C 17,6 C 8,7 C 5,2 C 5,2 C 0,9 C 91 % 94 % 24 % 1016,6 hPa 0,0 l/m 0,2 km/h (0 Bft) W-SW 247 0 min 0,0 UV-I 3,0 C 5,2 C 0,0 km/h (0 Bft)
06.06.2012 06:25 4,4 C 17,6 C 8,7 C 5,2 C 5,2 C 0,8 C 91 % 94 % 21 % 1016,6 hPa 0,0 l/m 0,0 km/h (0 Bft) W 270 0 min 0,0 UV-I 3,1 C 5,2 C 0,0 km/h (0 Bft)
06.06.2012 06:30 4,4 C 17,5 C 8,8 C 5,3 C 5,3 C 0,9 C 91 % 94 % 24 % 1016,6 hPa 0,0 l/m 0,0 km/h (0 Bft) W 270 0 min 0,0 UV-I 3,1 C 5,3 C 0,0 km/h (0 Bft)
06.06.2012 06:35 4,7 C 17,5 C 8,9 C 5,5 C 5,5 C 0,8 C 91 % 94 % 21 % 1016,6 hPa 0,0 l/m 0,0 km/h (0 Bft) W 270 0 min 0,0 UV-I 3,4 C 5,5 C 0,0 km/h (0 Bft)
06.06.2012 06:40 4,7 C 17,5 C 8,8 C 5,7 C 5,7 C 1,0 C 91 % 94 % 26 % 1016,6 hPa 0,0 l/m 0,0 km/h (0 Bft) W 270 0 min 0,0 UV-I 3,4 C 5,7 C 0,0 km/h (0 Bft)
06.06.2012 06:45 4,8 C 17,5 C 8,9 C 5,9 C 5,9 C 1,1 C 91 % 94 % 29 % 1016,1 hPa 0,0 l/m 0,0 km/h (0 Bft) W 270 0 min 0,0 UV-I 3,5 C 5,9 C 0,0 km/h (0 Bft)
06.06.2012 06:50 4,9 C 17,5 C 9,0 C 6,0 C 6,0 C 1,1 C 91 % 94 % 29 % 1016,1 hPa 0,0 l/m 0,0 km/h (0 Bft) W 270 0 min 0,0 UV-I 3,6 C 6,0 C 0,0 km/h (0 Bft)
06.06.2012 06:55 5,1 C 17,4 C 9,0 C 6,2 C 6,2 C 1,1 C 91 % 94 % 29 % 1016,1 hPa 0,0 l/m 0,0 km/h (0 Bft) W 270 0 min 0,0 UV-I 3,8 C 6,2 C 0,0 km/h (0 Bft)
06.06.2012 07:00 5,1 C 17,5 C 9,1 C 6,3 C 6,3 C 1,2 C 91 % 94 % 32 % 1016,1 hPa 0,0 l/m 0,0 km/h (0 Bft) W 270 0 min 0,0 UV-I 3,8 C 6,3 C 0,0 km/h (0 Bft)
06.06.2012 07:04 5,3 C 17,5 C 9,2 C 6,6 C 6,6 C 1,3 C 91 % 94 % 34 % 1016,2 hPa 0,0 l/m 0,3 km/h (0 Bft) SW 225 0 min 0,0 UV-I 4,0 C 6,6 C 0,0 km/h (0 Bft)
06.06.2012 07:09 5,5 C 17,5 C 9,2 C 6,8 C 6,8 C 1,3 C 91 % 95 % 34 % 1016,2 hPa 0,0 l/m 0,3 km/h (0 Bft) W 270 0 min 0,0 UV-I 4,2 C 6,8 C 0,0 km/h (0 Bft)
06.06.2012 07:14 5,6 C 17,5 C 9,2 C 7,1 C 7,1 C 1,5 C 91 % 95 % 39 % 1016,2 hPa 0,0 l/m 0,0 km/h (0 Bft) S-SW 202 0 min 0,0 UV-I 4,2 C 7,1 C 0,0 km/h (0 Bft)
06.06.2012 07:21 5,9 C 17,5 C 9,3 C 7,5 C 7,5 C 1,6 C 92 % 94 % 42 % 1015,8 hPa 0,0 l/m 0,0 km/h (0 Bft) NW 315 0 min 0,0 UV-I 4,7 C 7,5 C 0,0 km/h (0 Bft)
06.06.2012 07:30 5,9 C 17,4 C 9,4 C 7,7 C 7,7 C 1,8 C 92 % 94 % 47 % 1015,8 hPa 0,0 l/m 0,0 km/h (0 Bft) W-SW 247 0 min 0,0 UV-I 4,7 C 7,7 C 0,0 km/h (0 Bft)
06.06.2012 07:35 6,1 C 17,4 C 9,4 C 8,1 C 8,1 C 2,0 C 92 % 94 % 53 % 1015,8 hPa 0,0 l/m 0,0 km/h (0 Bft) SW 225 0 min 0,0 UV-I 4,9 C 8,1 C 0,0 km/h (0 Bft)
06.06.2012 07:40 6,2 C 17,4 C 9,6 C 8,2 C 8,2 C 2,0 C 92 % 95 % 53 % 1015,8 hPa 0,0 l/m 0,0 km/h (0 Bft) W 270 0 min 0,0 UV-I 5,0 C 8,2 C 0,0 km/h (0 Bft)
06.06.2012 07:45 6,5 C 17,4 C 9,6 C 8,2 C 8,2 C 1,7 C 92 % 95 % 45 % 1015,5 hPa 0,0 l/m 0,3 km/h (0 Bft) W-SW 247 0 min 0,0 UV-I 5,3 C 8,2 C 2,7 km/h (1 Bft)
06.06.2012 07:50 6,7 C 17,4 C 9,6 C 8,2 C 8,2 C 1,5 C 92 % 95 % 39 % 1015,5 hPa 0,0 l/m 0,8 km/h (0 Bft) W 270 0 min 0,0 UV-I 5,5 C 8,2 C 2,4 km/h (1 Bft)
06.06.2012 07:55 6,7 C 17,4 C 9,7 C 8,3 C 8,3 C 1,6 C 92 % 95 % 42 % 1015,5 hPa 0,0 l/m 0,8 km/h (0 Bft) NW 315 0 min 0,0 UV-I 5,5 C 8,3 C 1,6 km/h (1 Bft)
06.06.2012 08:00 6,8 C 17,4 C 9,8 C 8,4 C 8,4 C 1,6 C 92 % 95 % 42 % 1015,5 hPa 0,0 l/m 1,0 km/h (0 Bft) O 90 0 min 0,0 UV-I 5,6 C 8,4 C 0,0 km/h (0 Bft)
06.06.2012 08:04 7,2 C 17,3 C 10,1 C 8,8 C 8,8 C 1,6 C 92 % 95 % 42 % 1015,2 hPa 0,0 l/m 0,2 km/h (0 Bft) N-NW 337 0 min 0,0 UV-I 6,0 C 8,8 C 0,0 km/h (0 Bft)
06.06.2012 08:09 7,6 C 17,2 C 10,1 C 9,4 C 9,4 C 1,8 C 91 % 95 % 47 % 1015,2 hPa 0,0 l/m 0,2 km/h (0 Bft) SW 225 0 min 0,0 UV-I 6,2 C 9,4 C 2,3 km/h (1 Bft)
06.06.2012 08:14 7,9 C 17,2 C 10,1 C 9,4 C 9,4 C 1,5 C 91 % 95 % 39 % 1015,2 hPa 0,0 l/m 0,5 km/h (0 Bft) NW 315 0 min 0,0 UV-I 6,5 C 9,4 C 0,0 km/h (0 Bft)
06.06.2012 08:21 8,0 C 17,2 C 10,2 C 9,5 C 9,5 C 1,5 C 90 % 95 % 39 % 1015,1 hPa 0,0 l/m 0,5 km/h (0 Bft) NW 315 0 min 0,0 UV-I 6,5 C 9,5 C 0,0 km/h (0 Bft)
06.06.2012 08:25 8,0 C 17,2 C 10,2 C 9,5 C 9,5 C 1,5 C 90 % 95 % 39 % 1015,1 hPa 0,0 l/m 0,5 km/h (0 Bft) NW 315 0 min 0,0 UV-I 6,5 C 9,5 C 0,0 km/h (0 Bft)
06.06.2012 08:35 8,5 C 17,2 C 10,2 C 9,7 C 9,7 C 1,2 C 89 % 95 % 32 % 1015,1 hPa 0,0 l/m 0,2 km/h (0 Bft) O-SO 112 0 min 0,0 UV-I 6,8 C 9,7 C 0,0 km/h (0 Bft)
06.06.2012 08:40 8,7 C 17,2 C 10,3 C 9,9 C 9,9 C 1,2 C 87 % 95 % 32 % 1015,1 hPa 0,0 l/m 0,3 km/h (0 Bft) NO 45 0 min 0,0 UV-I 6,7 C 9,9 C 0,0 km/h (0 Bft)
06.06.2012 08:45 8,8 C 17,2 C 10,4 C 10,4 C 10,4 C 1,6 C 86 % 95 % 42 % 1015,1 hPa 0,0 l/m 0,2 km/h (0 Bft) N-NW 337 0 min 0,0 UV-I 6,6 C 10,4 C 0,0 km/h (0 Bft)
06.06.2012 08:50 9,0 C 17,2 C 10,4 C 10,9 C 10,9 C 1,9 C 86 % 95 % 50 % 1015,1 hPa 0,0 l/m 0,0 km/h (0 Bft) NW 315 0 min 0,0 UV-I 6,8 C 10,9 C 0,0 km/h (0 Bft)
06.06.2012 08:55 9,5 C 17,2 C 10,5 C 12,3 C 12,3 C 2,8 C 85 % 95 % 74 % 1015,1 hPa 0,0 l/m 0,0 km/h (0 Bft) NO 45 0 min 0,0 UV-I 7,1 C 12,3 C 0,0 km/h (0 Bft)
06.06.2012 09:00 9,9 C 17,2 C 10,6 C 13,1 C 13,1 C 3,2 C 85 % 95 % 84 % 1015,1 hPa 0,0 l/m 0,0 km/h (0 Bft) W-SW 247 0 min 0,0 UV-I 7,5 C 13,1 C 0,0 km/h (0 Bft)
06.06.2012 09:16 10,9 C 17,1 C 10,9 C 13,4 C 13,4 C 2,5 C 77 % 95 % 66 % 1015,1 hPa 0,0 l/m 1,3 km/h (1 Bft) NO 45 0 min 0,0 UV-I 7,0 C 13,4 C 4,7 km/h (1 Bft)
06.06.2012 09:19 10,9 C 17,1 C 10,9 C 13,4 C 13,4 C 2,5 C 77 % 95 % 66 % 1015,1 hPa 0,0 l/m 1,3 km/h (1 Bft) NO 45 0 min 0,0 UV-I 7,0 C 13,4 C 3,2 km/h (1 Bft)
06.06.2012 09:25 11,1 C 17,1 C 10,9 C 13,4 C 13,4 C 2,3 C 76 % 95 % 61 % 1014,8 hPa 0,0 l/m 1,4 km/h (1 Bft) O-SO 112 0 min 0,0 UV-I 7,0 C 13,4 C 2,3 km/h (1 Bft)
06.06.2012 09:30 11,1 C 17,1 C 11,1 C 13,4 C 13,4 C 2,3 C 76 % 95 % 61 % 1014,8 hPa 0,0 l/m 1,4 km/h (1 Bft) N 360 0 min 0,0 UV-I 7,0 C 13,4 C 0,0 km/h (0 Bft)
06.06.2012 09:35 11,2 C 17,1 C 11,1 C 13,5 C 13,5 C 2,3 C 74 % 95 % 61 % 1014,8 hPa 0,0 l/m 1,1 km/h (1 Bft) W 270 0 min 0,0 UV-I 6,7 C 13,5 C 3,2 km/h (1 Bft)
06.06.2012 09:40 11,3 C 17,1 C 11,1 C 13,6 C 13,6 C 2,3 C 75 % 94 % 61 % 1014,8 hPa 0,0 l/m 1,1 km/h (1 Bft) SO 135 0 min 0,0 UV-I 7,0 C 13,6 C 2,3 km/h (1 Bft)
06.06.2012 09:45 11,6 C 17,1 C 11,1 C 13,9 C 13,9 C 2,3 C 75 % 94 % 61 % 1014,7 hPa 0,0 l/m 1,0 km/h (0 Bft) NO 45 0 min 0,0 UV-I 7,3 C 13,9 C 2,1 km/h (1 Bft)
06.06.2012 09:50 11,6 C 17,1 C 11,1 C 13,9 C 13,9 C 2,3 C 74 % 94 % 61 % 1014,7 hPa 0,0 l/m 0,6 km/h (0 Bft) S-SO 157 0 min 0,0 UV-I 7,1 C 13,9 C 0,0 km/h (0 Bft)
06.06.2012 09:55 11,8 C 17,1 C 11,2 C 14,1 C 14,1 C 2,3 C 72 % 94 % 61 % 1014,7 hPa 0,0 l/m 1,3 km/h (1 Bft) SW 225 0 min 0,0 UV-I 6,9 C 14,1 C 7,1 km/h (2 Bft)
06.06.2012 10:00 11,9 C 17,1 C 11,2 C 14,0 C 14,0 C 2,1 C 73 % 94 % 55 % 1014,7 hPa 0,0 l/m 1,3 km/h (1 Bft) SW 225 0 min 0,0 UV-I 7,2 C 14,0 C 0,0 km/h (0 Bft)
06.06.2012 10:05 12,0 C 17,2 C 11,2 C 14,1 C 14,1 C 2,1 C 73 % 94 % 55 % 1014,6 hPa 0,0 l/m 1,0 km/h (0 Bft) NW 315 0 min 0,0 UV-I 7,3 C 14,1 C 0,0 km/h (0 Bft)
06.06.2012 10:10 12,1 C 17,2 C 11,3 C 14,1 C 14,1 C 2,0 C 73 % 94 % 53 % 1014,6 hPa 0,0 l/m 0,5 km/h (0 Bft) N-NO 22 0 min 0,0 UV-I 7,4 C 14,1 C 1,9 km/h (1 Bft)
06.06.2012 10:15 12,3 C 17,2 C 11,3 C 14,2 C 14,2 C 1,9 C 72 % 94 % 50 % 1014,6 hPa 0,0 l/m 0,8 km/h (0 Bft) N 360 0 min 0,0 UV-I 7,4 C 14,2 C 1,8 km/h (1 Bft)
06.06.2012 10:20 12,3 C 17,2 C 11,5 C 14,3 C 14,3 C 2,0 C 72 % 94 % 53 % 1014,6 hPa 0,0 l/m 1,0 km/h (0 Bft) N-NW 337 0 min 0,0 UV-I 7,4 C 14,3 C 0,0 km/h (0 Bft)
06.06.2012 10:25 12,4 C 17,2 C 11,5 C 14,6 C 14,6 C 2,2 C 72 % 94 % 58 % 1014,0 hPa 0,0 l/m 0,6 km/h (0 Bft) NO 45 0 min 0,0 UV-I 7,5 C 14,6 C 0,0 km/h (0 Bft)
06.06.2012 10:30 12,5 C 17,2 C 11,4 C 14,8 C 14,8 C 2,3 C 72 % 94 % 61 % 1014,0 hPa 0,0 l/m 0,3 km/h (0 Bft) N-NO 22 0 min 0,0 UV-I 7,6 C 14,8 C 2,1 km/h (1 Bft)
06.06.2012 10:35 12,7 C 17,2 C 11,5 C 15,0 C 15,0 C 2,3 C 72 % 94 % 61 % 1014,0 hPa 0,0 l/m 0,5 km/h (0 Bft) O-NO 67 0 min 0,0 UV-I 7,8 C 15,0 C 0,0 km/h (0 Bft)
06.06.2012 10:40 12,8 C 17,2 C 11,6 C 15,4 C 15,4 C 2,6 C 72 % 94 % 68 % 1014,0 hPa 0,0 l/m 0,5 km/h (0 Bft) S 180 0 min 0,0 UV-I 7,9 C 15,4 C 0,0 km/h (0 Bft)
06.06.2012 10:45 13,1 C 17,2 C 11,6 C 16,1 C 16,1 C 3,0 C 70 % 94 % 79 % 1014,3 hPa 0,0 l/m 0,0 km/h (0 Bft) S-SO 157 0 min 0,0 UV-I 7,8 C 16,1 C 0,0 km/h (0 Bft)
06.06.2012 10:50 13,2 C 17,2 C 11,7 C 16,4 C 16,4 C 3,2 C 70 % 94 % 84 % 1014,3 hPa 0,0 l/m 0,3 km/h (0 Bft) SW 225 0 min 0,0 UV-I 7,9 C 16,4 C 0,0 km/h (0 Bft)
06.06.2012 10:55 13,5 C 17,2 C 11,7 C 16,9 C 16,9 C 3,4 C 69 % 94 % 89 % 1014,3 hPa 0,0 l/m 1,1 km/h (1 Bft) SW 225 5 min 0,0 UV-I 7,9 C 16,9 C 3,5 km/h (1 Bft)
06.06.2012 11:00 13,7 C 17,3 C 11,9 C 17,2 C 17,2 C 3,5 C 69 % 94 % 92 % 1014,3 hPa 0,0 l/m 1,1 km/h (1 Bft) O-NO 67 5 min 0,0 UV-I 8,1 C 17,2 C 1,9 km/h (1 Bft)
06.06.2012 11:16 14,4 C 17,3 C 12,1 C 19,3 C 19,3 C 4,9 C 67 % 94 % 100 % 1014,0 hPa 0,0 l/m 1,3 km/h (1 Bft) SW 225 16 min 0,0 UV-I 8,4 C 19,3 C 2,3 km/h (1 Bft)
06.06.2012 11:19 14,4 C 17,3 C 12,1 C 19,3 C 19,3 C 4,9 C 67 % 94 % 100 % 1014,0 hPa 0,0 l/m 1,3 km/h (1 Bft) SW 225 3 min 0,0 UV-I 8,4 C 19,3 C 2,3 km/h (1 Bft)
06.06.2012 11:29 14,8 C 17,3 C 12,3 C 19,7 C 19,7 C 4,9 C 66 % 94 % 100 % 1014,0 hPa 0,0 l/m 1,6 km/h (1 Bft) W 270 10 min 0,0 UV-I 8,5 C 19,7 C 0,0 km/h (0 Bft)
06.06.2012 11:30 14,8 C 17,3 C 12,3 C 19,7 C 19,7 C 4,9 C 66 % 94 % 100 % 1014,0 hPa 0,0 l/m 1,6 km/h (1 Bft) W 270 1 min 0,0 UV-I 8,5 C 19,7 C 0,0 km/h (0 Bft)
06.06.2012 11:31 15,1 C 17,3 C 12,4 C 19,5 C 19,5 C 4,4 C 63 % 94 % 100 % 1014,0 hPa 0,0 l/m 2,1 km/h (1 Bft) O-NO 67 1 min 0,0 UV-I 8,1 C 19,5 C 6,0 km/h (2 Bft)
06.06.2012 11:32 15,1 C 17,3 C 12,4 C 19,5 C 19,5 C 4,4 C 63 % 94 % 100 % 1014,0 hPa 0,0 l/m 2,1 km/h (1 Bft) O-NO 67 1 min 0,0 UV-I 8,1 C 19,5 C 6,0 km/h (2 Bft)
06.06.2012 11:33 15,1 C 17,3 C 12,4 C 19,5 C 19,5 C 4,4 C 63 % 94 % 100 % 1014,0 hPa 0,0 l/m 2,1 km/h (1 Bft) O-NO 67 1 min 0,0 UV-I 8,1 C 19,5 C 6,0 km/h (2 Bft)
06.06.2012 11:34 14,7 C 17,3 C 12,5 C 18,9 C 18,9 C 4,2 C 63 % 94 % 100 % 1014,0 hPa 0,0 l/m 2,3 km/h (1 Bft) O-NO 67 1 min 0,0 UV-I 7,7 C 18,9 C 5,0 km/h (1 Bft)
06.06.2012 11:37 14,7 C 17,3 C 12,5 C 18,9 C 18,9 C 4,2 C 63 % 94 % 100 % 1014,0 hPa 0,0 l/m 2,3 km/h (1 Bft) O-NO 67 3 min 0,0 UV-I 7,7 C 18,9 C 5,0 km/h (1 Bft)
06.06.2012 11:40 14,7 C 17,3 C 12,5 C 18,9 C 18,9 C 4,2 C 63 % 94 % 100 % 1014,0 hPa 0,0 l/m 2,3 km/h (1 Bft) O-NO 67 3 min 0,0 UV-I 7,7 C 18,9 C 5,0 km/h (1 Bft)
06.06.2012 11:45 14,5 C 17,3 C 12,5 C 18,5 C 18,5 C 4,0 C 62 % 94 % 100 % 1013,6 hPa 0,0 l/m 3,4 km/h (1 Bft) O-NO 67 5 min 0,0 UV-I 7,3 C 18,5 C 3,7 km/h (1 Bft)
06.06.2012 11:50 14,5 C 17,3 C 12,7 C 18,7 C 18,7 C 4,2 C 63 % 94 % 100 % 1013,6 hPa 0,0 l/m 4,0 km/h (1 Bft) O-NO 67 5 min 0,0 UV-I 7,5 C 18,7 C 6,3 km/h (2 Bft)
06.06.2012 11:55 14,8 C 17,4 C 12,7 C 19,3 C 19,3 C 4,5 C 65 % 94 % 100 % 1013,6 hPa 0,0 l/m 3,7 km/h (1 Bft) SW 225 5 min 0,0 UV-I 8,3 C 19,3 C 8,7 km/h (2 Bft)
06.06.2012 12:00 15,1 C 17,4 C 12,7 C 20,0 C 20,0 C 4,9 C 63 % 94 % 100 % 1013,6 hPa 0,0 l/m 2,9 km/h (1 Bft) N-NO 22 5 min 0,0 UV-I 8,1 C 20,0 C 3,2 km/h (1 Bft)
06.06.2012 12:16 15,3 C 17,4 C 13,1 C 19,8 C 19,8 C 4,5 C 63 % 93 % 100 % 1013,2 hPa 0,0 l/m 2,1 km/h (1 Bft) NO 45 16 min 0,0 UV-I 8,3 C 19,8 C 11,1 km/h (2 Bft)
06.06.2012 12:19 15,3 C 17,4 C 13,1 C 19,8 C 19,8 C 4,5 C 63 % 93 % 100 % 1013,2 hPa 0,0 l/m 2,1 km/h (1 Bft) NO 45 3 min 0,0 UV-I 8,3 C 19,8 C 1,9 km/h (1 Bft)
06.06.2012 12:29 16,1 C 17,4 C 13,1 C 20,9 C 20,9 C 4,8 C 60 % 93 % 100 % 1013,5 hPa 0,0 l/m 1,3 km/h (1 Bft) W-SW 247 10 min 0,0 UV-I 8,3 C 20,9 C 2,4 km/h (1 Bft)
06.06.2012 12:30 16,1 C 17,4 C 13,1 C 20,9 C 20,9 C 4,8 C 60 % 93 % 100 % 1013,5 hPa 0,0 l/m 1,3 km/h (1 Bft) W-SW 247 1 min 0,0 UV-I 8,3 C 20,9 C 2,4 km/h (1 Bft)
06.06.2012 12:31 16,4 C 17,5 C 13,1 C 21,0 C 21,0 C 4,6 C 58 % 93 % 100 % 1013,5 hPa 0,0 l/m 2,1 km/h (1 Bft) W 270 1 min 0,0 UV-I 8,1 C 21,0 C 0,0 km/h (0 Bft)
06.06.2012 12:32 16,4 C 17,5 C 13,1 C 21,0 C 21,0 C 4,6 C 58 % 93 % 100 % 1013,5 hPa 0,0 l/m 2,1 km/h (1 Bft) W 270 1 min 0,0 UV-I 8,1 C 21,0 C 0,0 km/h (0 Bft)
06.06.2012 12:33 16,4 C 17,5 C 13,1 C 21,0 C 21,0 C 4,6 C 58 % 93 % 100 % 1013,5 hPa 0,0 l/m 2,1 km/h (1 Bft) W 270 1 min 0,0 UV-I 8,1 C 21,0 C 0,0 km/h (0 Bft)
06.06.2012 12:34 16,4 C 17,5 C 13,1 C 20,9 C 20,9 C 4,5 C 58 % 93 % 100 % 1013,5 hPa 0,0 l/m 1,8 km/h (1 Bft) O 90 1 min 0,0 UV-I 8,1 C 20,9 C 1,6 km/h (1 Bft)
06.06.2012 12:37 16,4 C 17,5 C 13,1 C 20,9 C 20,9 C 4,5 C 58 % 93 % 100 % 1013,5 hPa 0,0 l/m 1,8 km/h (1 Bft) O 90 3 min 0,0 UV-I 8,1 C 20,9 C 1,6 km/h (1 Bft)
06.06.2012 12:40 16,4 C 17,5 C 13,1 C 20,9 C 20,9 C 4,5 C 58 % 93 % 100 % 1013,5 hPa 0,0 l/m 1,8 km/h (1 Bft) O 90 3 min 0,0 UV-I 8,1 C 20,9 C 1,6 km/h (1 Bft)
06.06.2012 12:45 16,6 C 17,5 C 13,1 C 21,0 C 21,0 C 4,4 C 59 % 93 % 100 % 1013,2 hPa 0,0 l/m 1,1 km/h (1 Bft) S-SO 157 5 min 0,0 UV-I 8,6 C 21,0 C 2,4 km/h (1 Bft)
06.06.2012 12:50 16,8 C 17,5 C 13,1 C 21,3 C 21,3 C 4,5 C 59 % 93 % 100 % 1013,2 hPa 0,0 l/m 0,8 km/h (0 Bft) O-NO 67 5 min 0,0 UV-I 8,7 C 21,3 C 0,0 km/h (0 Bft)
06.06.2012 12:55 16,9 C 17,5 C 13,1 C 21,0 C 21,0 C 4,1 C 59 % 93 % 100 % 1013,2 hPa 0,0 l/m 0,8 km/h (0 Bft) O-NO 67 5 min 0,0 UV-I 8,8 C 21,0 C 2,4 km/h (1 Bft)
06.06.2012 13:00 16,6 C 17,5 C 13,1 C 20,4 C 20,4 C 3,8 C 58 % 93 % 100 % 1013,2 hPa 0,0 l/m 1,3 km/h (1 Bft) S 180 5 min 0,0 UV-I 8,3 C 20,4 C 3,1 km/h (1 Bft)
06.06.2012 13:15 16,0 C 17,6 C 13,0 C 18,6 C 18,6 C 2,6 C 60 % 93 % 68 % 1012,8 hPa 0,0 l/m 1,1 km/h (1 Bft) NO 45 0 min 0,0 UV-I 8,2 C 18,6 C 0,0 km/h (0 Bft)
06.06.2012 13:16 16,1 C 17,6 C 13,1 C 18,6 C 18,6 C 2,5 C 60 % 93 % 66 % 1012,8 hPa 0,0 l/m 0,3 km/h (0 Bft) N 360 0 min 0,0 UV-I 8,3 C 18,6 C 0,0 km/h (0 Bft)
06.06.2012 13:19 16,1 C 17,6 C 13,1 C 18,6 C 18,6 C 2,5 C 60 % 93 % 66 % 1012,8 hPa 0,0 l/m 0,3 km/h (0 Bft) N 360 0 min 0,0 UV-I 8,3 C 18,6 C 0,0 km/h (0 Bft)
06.06.2012 13:25 16,1 C 17,6 C 13,1 C 18,9 C 18,9 C 2,8 C 61 % 93 % 74 % 1012,2 hPa 0,0 l/m 0,5 km/h (0 Bft) NO 45 0 min 0,0 UV-I 8,6 C 18,9 C 1,9 km/h (1 Bft)
06.06.2012 13:30 16,2 C 17,6 C 13,1 C 18,9 C 18,9 C 2,7 C 60 % 93 % 71 % 1012,2 hPa 0,0 l/m 1,8 km/h (1 Bft) O-NO 67 0 min 0,0 UV-I 8,4 C 18,9 C 7,1 km/h (2 Bft)
06.06.2012 13:35 15,9 C 17,6 C 13,1 C 18,7 C 18,7 C 2,8 C 59 % 93 % 74 % 1012,2 hPa 0,0 l/m 2,7 km/h (1 Bft) O-NO 67 0 min 0,0 UV-I 7,9 C 18,7 C 5,0 km/h (1 Bft)
06.06.2012 13:40 15,9 C 17,7 C 13,2 C 18,5 C 18,5 C 2,6 C 60 % 92 % 68 % 1012,2 hPa 0,0 l/m 3,7 km/h (1 Bft) NO 45 0 min 0,0 UV-I 8,1 C 18,5 C 7,6 km/h (2 Bft)
06.06.2012 13:45 15,5 C 17,7 C 13,2 C 18,0 C 18,0 C 2,5 C 60 % 92 % 66 % 1012,2 hPa 0,0 l/m 5,1 km/h (1 Bft) O-NO 67 0 min 0,0 UV-I 7,8 C 18,0 C 5,8 km/h (2 Bft)
06.06.2012 13:50 15,4 C 17,7 C 13,2 C 17,6 C 17,6 C 2,2 C 61 % 92 % 58 % 1012,2 hPa 0,0 l/m 5,0 km/h (1 Bft) O-NO 67 0 min 0,0 UV-I 7,9 C 17,6 C 3,7 km/h (1 Bft)
06.06.2012 13:55 15,5 C 17,7 C 13,3 C 17,5 C 17,5 C 2,0 C 62 % 92 % 53 % 1012,2 hPa 0,0 l/m 4,0 km/h (1 Bft) O 90 0 min 0,0 UV-I 8,3 C 17,5 C 5,8 km/h (2 Bft)
06.06.2012 14:00 15,4 C 17,7 C 13,2 C 17,5 C 17,5 C 2,1 C 60 % 92 % 55 % 1012,2 hPa 0,0 l/m 4,2 km/h (1 Bft) O-NO 67 0 min 0,0 UV-I 7,7 C 17,5 C 7,9 km/h (2 Bft)
06.06.2012 14:15 15,6 C 17,7 C 13,5 C 18,6 C 18,6 C 3,0 C 60 % 92 % 79 % 1012,3 hPa 0,0 l/m 5,8 km/h (2 Bft) O-NO 67 0 min 0,0 UV-I 7,9 C 18,6 C 11,9 km/h (2 Bft)
06.06.2012 14:16 15,6 C 17,7 C 13,6 C 18,8 C 18,8 C 3,2 C 63 % 92 % 84 % 1012,3 hPa 0,0 l/m 5,0 km/h (1 Bft) NO 45 0 min 0,0 UV-I 8,6 C 18,8 C 2,7 km/h (1 Bft)
06.06.2012 14:26 15,9 C 17,7 C 13,6 C 19,1 C 19,1 C 3,2 C 61 % 92 % 84 % 1012,1 hPa 0,0 l/m 3,9 km/h (1 Bft) NO 45 0 min 0,0 UV-I 8,4 C 19,1 C 0,0 km/h (0 Bft)
06.06.2012 14:30 15,9 C 17,7 C 13,5 C 19,0 C 19,0 C 3,1 C 62 % 92 % 82 % 1012,1 hPa 0,0 l/m 2,7 km/h (1 Bft) O 90 0 min 0,0 UV-I 8,6 C 19,0 C 0,0 km/h (0 Bft)
06.06.2012 14:35 16,0 C 17,8 C 13,5 C 19,0 C 19,0 C 3,0 C 62 % 92 % 79 % 1012,1 hPa 0,0 l/m 1,3 km/h (1 Bft) O 90 0 min 0,0 UV-I 8,7 C 19,0 C 1,6 km/h (1 Bft)
06.06.2012 14:40 16,1 C 17,9 C 13,5 C 18,7 C 18,7 C 2,6 C 60 % 91 % 68 % 1012,1 hPa 0,0 l/m 2,3 km/h (1 Bft) NO 45 0 min 0,0 UV-I 8,3 C 18,7 C 2,9 km/h (1 Bft)
06.06.2012 14:45 15,9 C 17,9 C 13,5 C 18,1 C 18,1 C 2,2 C 61 % 92 % 58 % 1011,9 hPa 0,0 l/m 2,6 km/h (1 Bft) O 90 0 min 0,0 UV-I 8,4 C 18,1 C 4,3 km/h (1 Bft)
06.06.2012 14:50 15,9 C 17,9 C 13,5 C 18,0 C 18,0 C 2,1 C 61 % 92 % 55 % 1011,9 hPa 0,0 l/m 2,6 km/h (1 Bft) S 180 0 min 0,0 UV-I 8,4 C 18,0 C 1,9 km/h (1 Bft)
06.06.2012 14:55 16,0 C 17,9 C 13,5 C 18,3 C 18,3 C 2,3 C 62 % 92 % 61 % 1011,9 hPa 0,0 l/m 1,9 km/h (1 Bft) O-NO 67 0 min 0,0 UV-I 8,7 C 18,3 C 2,4 km/h (1 Bft)
06.06.2012 15:00 16,1 C 17,9 C 13,4 C 18,4 C 18,4 C 2,3 C 61 % 92 % 61 % 1011,9 hPa 0,0 l/m 1,6 km/h (1 Bft) O 90 0 min 0,0 UV-I 8,6 C 18,4 C 3,7 km/h (1 Bft)
06.06.2012 15:15 16,2 C 17,9 C 13,8 C 19,5 C 19,5 C 3,3 C 60 % 91 % 87 % 1011,4 hPa 0,0 l/m 5,3 km/h (1 Bft) O 90 15 min 0,0 UV-I 8,4 C 19,5 C 5,8 km/h (2 Bft)
06.06.2012 15:18 16,3 C 17,9 C 13,9 C 19,5 C 19,5 C 3,2 C 62 % 92 % 84 % 1011,4 hPa 0,0 l/m 4,2 km/h (1 Bft) O-NO 67 0 min 0,0 UV-I 9,0 C 19,5 C 0,0 km/h (0 Bft)
06.06.2012 15:29 16,9 C 17,9 C 13,7 C 20,1 C 20,1 C 3,2 C 63 % 91 % 84 % 1011,2 hPa 0,0 l/m 0,8 km/h (0 Bft) S-SO 157 0 min 0,0 UV-I 9,8 C 20,1 C 0,0 km/h (0 Bft)
06.06.2012 15:30 16,9 C 17,9 C 13,7 C 20,1 C 20,1 C 3,2 C 63 % 91 % 84 % 1011,2 hPa 0,0 l/m 0,8 km/h (0 Bft) S-SO 157 0 min 0,0 UV-I 9,8 C 20,1 C 0,0 km/h (0 Bft)
06.06.2012 15:31 16,9 C 17,9 C 13,7 C 20,1 C 20,1 C 3,2 C 63 % 91 % 84 % 1011,2 hPa 0,0 l/m 0,8 km/h (0 Bft) S-SO 157 0 min 0,0 UV-I 9,8 C 20,1 C 0,0 km/h (0 Bft)
06.06.2012 15:32 16,8 C 18,0 C 13,6 C 19,6 C 19,6 C 2,8 C 62 % 91 % 74 % 1011,2 hPa 0,0 l/m 1,0 km/h (0 Bft) O-NO 67 0 min 0,0 UV-I 9,5 C 19,6 C 0,0 km/h (0 Bft)
06.06.2012 15:33 16,8 C 18,0 C 13,6 C 19,6 C 19,6 C 2,8 C 62 % 91 % 74 % 1011,2 hPa 0,0 l/m 1,0 km/h (0 Bft) O-NO 67 0 min 0,0 UV-I 9,5 C 19,6 C 0,0 km/h (0 Bft)
06.06.2012 15:36 16,8 C 18,0 C 13,6 C 19,6 C 19,6 C 2,8 C 62 % 91 % 74 % 1011,2 hPa 0,0 l/m 1,0 km/h (0 Bft) O-NO 67 0 min 0,0 UV-I 9,5 C 19,6 C 0,0 km/h (0 Bft)
06.06.2012 15:40 16,7 C 18,0 C 13,6 C 19,1 C 19,1 C 2,4 C 62 % 91 % 63 % 1011,2 hPa 0,0 l/m 0,6 km/h (0 Bft) O-NO 67 0 min 0,0 UV-I 9,4 C 19,1 C 2,9 km/h (1 Bft)
06.06.2012 15:45 16,5 C 18,1 C 13,5 C 18,4 C 18,4 C 1,9 C 63 % 91 % 50 % 1011,1 hPa 0,0 l/m 0,5 km/h (0 Bft) O-SO 112 0 min 0,0 UV-I 9,4 C 18,4 C 0,0 km/h (0 Bft)
06.06.2012 15:50 16,6 C 18,1 C 13,4 C 18,2 C 18,2 C 1,6 C 64 % 91 % 42 % 1011,1 hPa 0,0 l/m 0,5 km/h (0 Bft) SO 135 0 min 0,0 UV-I 9,8 C 18,2 C 0,0 km/h (0 Bft)
06.06.2012 15:55 16,7 C 18,1 C 13,4 C 18,0 C 18,0 C 1,3 C 64 % 91 % 34 % 1011,1 hPa 0,0 l/m 0,0 km/h (0 Bft) W 270 0 min 0,0 UV-I 9,9 C 18,0 C 0,0 km/h (0 Bft)
06.06.2012 16:00 16,7 C 18,1 C 13,4 C 17,8 C 17,8 C 1,1 C 65 % 91 % 29 % 1011,1 hPa 0,0 l/m 0,0 km/h (0 Bft) W-NW 292 0 min 0,0 UV-I 10,1 C 17,8 C 0,0 km/h (0 Bft)
06.06.2012 16:09 16,7 C 18,1 C 13,5 C 16,7 C 16,7 C 0,0 C 65 % 92 % 0 % 1011,1 hPa 0,0 l/m 0,2 km/h (0 Bft) N 0 0 min 0,0 UV-I 10,1 C 16,7 C 1,6 km/h (1 Bft)
06.06.2012 16:19 16,3 C 18,2 C 13,2 C 16,0 C 15,3 C 0,0 C 68 % 92 % 0 % 1011,1 hPa 0,0 l/m 0,5 km/h (0 Bft) W-SW 247 0 min 0,0 UV-I 10,4 C 15,3 C 0,0 km/h (0 Bft)
06.06.2012 16:25 16,1 C 18,2 C 13,2 C 15,7 C 14,9 C 0,0 C 68 % 92 % 0 % 1011,1 hPa 0,0 l/m 0,3 km/h (0 Bft) O-SO 112 0 min 0,0 UV-I 10,2 C 14,9 C 0,0 km/h (0 Bft)
06.06.2012 16:30 15,9 C 18,2 C 13,2 C 15,5 C 14,6 C 0,0 C 69 % 92 % 0 % 1011,1 hPa 0,0 l/m 0,3 km/h (0 Bft) S 180 0 min 0,0 UV-I 10,2 C 14,6 C 0,0 km/h (0 Bft)
06.06.2012 16:35 15,7 C 18,5 C 13,1 C 15,2 C 14,2 C 0,0 C 71 % 92 % 0 % 1011,1 hPa 0,0 l/m 0,0 km/h (0 Bft) S 180 0 min 0,0 UV-I 10,5 C 14,2 C 0,0 km/h (0 Bft)
06.06.2012 16:40 15,6 C 18,6 C 13,0 C 15,1 C 14,0 C 0,0 C 73 % 92 % 0 % 1011,1 hPa 0,0 l/m 0,0 km/h (0 Bft) S-SO 157 0 min 0,0 UV-I 10,8 C 14,0 C 0,0 km/h (0 Bft)
06.06.2012 16:45 15,4 C 18,7 C 13,0 C 14,9 C 13,9 C 0,0 C 74 % 92 % 0 % 1011,1 hPa 0,7 l/m 0,0 km/h (0 Bft) SW 225 0 min 0,0 UV-I 10,8 C 13,9 C 0,0 km/h (0 Bft)
06.06.2012 16:50 15,3 C 18,7 C 13,0 C 14,9 C 14,0 C 0,0 C 75 % 92 % 0 % 1011,1 hPa 0,0 l/m 0,0 km/h (0 Bft) O-SO 112 0 min 0,0 UV-I 10,9 C 14,0 C 0,0 km/h (0 Bft)
06.06.2012 16:55 15,2 C 18,8 C 13,1 C 14,8 C 14,1 C 0,0 C 76 % 92 % 0 % 1011,1 hPa 0,0 l/m 0,0 km/h (0 Bft) O 90 0 min 0,0 UV-I 11,0 C 14,1 C 0,0 km/h (0 Bft)
06.06.2012 17:00 15,3 C 18,8 C 13,0 C 15,0 C 14,3 C 0,0 C 77 % 92 % 0 % 1011,1 hPa 0,0 l/m 0,0 km/h (0 Bft) SW 225 0 min 0,0 UV-I 11,3 C 14,3 C 0,0 km/h (0 Bft)
06.06.2012 17:04 15,3 C 18,8 C 13,1 C 15,0 C 14,3 C 0,0 C 78 % 92 % 0 % 1011,1 hPa 0,0 l/m 0,0 km/h (0 Bft) S-SO 157 0 min 0,0 UV-I 11,5 C 14,3 C 0,0 km/h (0 Bft)
06.06.2012 17:09 15,3 C 18,8 C 13,1 C 15,1 C 14,6 C 0,0 C 79 % 93 % 0 % 1011,1 hPa 0,0 l/m 0,2 km/h (0 Bft) S 180 0 min 0,0 UV-I 11,7 C 14,6 C 0,0 km/h (0 Bft)
06.06.2012 17:14 15,3 C 18,8 C 13,0 C 15,1 C 14,8 C 0,0 C 79 % 93 % 0 % 1011,1 hPa 0,0 l/m 0,2 km/h (0 Bft) SO 135 0 min 0,0 UV-I 11,7 C 14,8 C 0,0 km/h (0 Bft)
06.06.2012 17:21 15,3 C 18,8 C 13,0 C 15,1 C 14,8 C 0,0 C 79 % 93 % 0 % 1011,1 hPa 0,0 l/m 0,2 km/h (0 Bft) SO 135 0 min 0,0 UV-I 11,7 C 14,8 C 0,0 km/h (0 Bft)
06.06.2012 17:25 15,3 C 18,8 C 13,1 C 15,2 C 15,0 C 0,0 C 79 % 93 % 0 % 1010,8 hPa 0,0 l/m 0,2 km/h (0 Bft) SO 135 0 min 0,0 UV-I 11,7 C 15,0 C 0,0 km/h (0 Bft)
06.06.2012 17:30 15,3 C 18,9 C 13,0 C 15,2 C 15,1 C 0,0 C 80 % 93 % 0 % 1010,8 hPa 0,0 l/m 0,0 km/h (0 Bft) SO 135 0 min 0,0 UV-I 11,9 C 15,1 C 0,0 km/h (0 Bft)
06.06.2012 17:35 15,5 C 18,8 C 13,1 C 16,3 C 16,3 C 0,8 C 81 % 93 % 21 % 1010,8 hPa 0,0 l/m 0,0 km/h (0 Bft) SO 135 0 min 0,0 UV-I 12,3 C 16,3 C 0,0 km/h (0 Bft)
06.06.2012 17:40 15,6 C 18,8 C 13,2 C 17,0 C 17,0 C 1,4 C 81 % 93 % 37 % 1010,8 hPa 0,0 l/m 0,0 km/h (0 Bft) O-NO 67 0 min 0,0 UV-I 12,3 C 17,0 C 0,0 km/h (0 Bft)
06.06.2012 17:45 15,6 C 18,8 C 13,3 C 17,6 C 17,6 C 2,0 C 81 % 93 % 53 % 1010,5 hPa 0,0 l/m 0,2 km/h (0 Bft) NO 45 0 min 0,0 UV-I 12,3 C 17,6 C 0,0 km/h (0 Bft)
06.06.2012 17:50 15,7 C 18,9 C 13,2 C 18,0 C 18,0 C 2,3 C 81 % 93 % 61 % 1010,5 hPa 0,0 l/m 0,0 km/h (0 Bft) SO 135 0 min 0,0 UV-I 12,4 C 18,0 C 0,0 km/h (0 Bft)
06.06.2012 17:55 15,9 C 18,8 C 13,2 C 18,0 C 18,0 C 2,1 C 81 % 93 % 55 % 1010,5 hPa 0,0 l/m 0,3 km/h (0 Bft) S 180 0 min 0,0 UV-I 12,6 C 18,0 C 0,0 km/h (0 Bft)
06.06.2012 18:00 16,0 C 18,9 C 13,2 C 17,9 C 17,9 C 1,9 C 80 % 93 % 50 % 1010,5 hPa 0,0 l/m 0,3 km/h (0 Bft) S 180 0 min 0,0 UV-I 12,5 C 17,9 C 0,0 km/h (0 Bft)
06.06.2012 18:09 16,0 C 18,8 C 13,2 C 16,7 C 16,7 C 0,7 C 79 % 93 % 18 % 1010,1 hPa 0,0 l/m 0,0 km/h (0 Bft) NO 45 0 min 0,0 UV-I 12,4 C 16,7 C 0,0 km/h (0 Bft)
06.06.2012 18:14 15,9 C 18,8 C 13,2 C 16,4 C 16,4 C 0,5 C 79 % 93 % 13 % 1010,1 hPa 0,0 l/m 0,0 km/h (0 Bft) O-NO 67 0 min 0,0 UV-I 12,3 C 16,4 C 0,0 km/h (0 Bft)
06.06.2012 18:21 15,9 C 18,8 C 13,2 C 16,4 C 16,4 C 0,5 C 79 % 93 % 13 % 1010,1 hPa 0,0 l/m 0,0 km/h (0 Bft) O-NO 67 0 min 0,0 UV-I 12,3 C 16,4 C 0,0 km/h (0 Bft)
06.06.2012 18:25 15,6 C 18,8 C 13,2 C 15,9 C 15,9 C 0,3 C 79 % 93 % 8 % 1009,6 hPa 0,0 l/m 0,0 km/h (0 Bft) O-NO 67 0 min 0,0 UV-I 12,0 C 15,9 C 0,0 km/h (0 Bft)
06.06.2012 18:35 15,3 C 18,9 C 13,1 C 15,3 C 15,3 C 0,0 C 80 % 93 % 0 % 1009,6 hPa 0,0 l/m 0,0 km/h (0 Bft) NO 45 0 min 0,0 UV-I 11,9 C 15,3 C 0,0 km/h (0 Bft)
06.06.2012 18:40 15,2 C 18,8 C 13,1 C 15,2 C 15,1 C 0,0 C 80 % 93 % 0 % 1009,6 hPa 0,0 l/m 0,0 km/h (0 Bft) NO 45 0 min 0,0 UV-I 11,8 C 15,1 C 0,0 km/h (0 Bft)
06.06.2012 18:45 15,1 C 18,9 C 13,1 C 15,1 C 15,1 C 0,0 C 80 % 93 % 0 % 1010,2 hPa 0,0 l/m 0,0 km/h (0 Bft) O-NO 67 0 min 0,0 UV-I 11,7 C 15,1 C 0,0 km/h (0 Bft)
06.06.2012 18:50 15,1 C 18,9 C 13,1 C 15,1 C 15,1 C 0,0 C 81 % 93 % 0 % 1010,2 hPa 0,0 l/m 0,0 km/h (0 Bft) O 90 0 min 0,0 UV-I 11,9 C 15,1 C 0,0 km/h (0 Bft)
06.06.2012 18:55 14,9 C 18,9 C 13,1 C 14,9 C 14,9 C 0,0 C 81 % 93 % 0 % 1010,2 hPa 0,0 l/m 0,0 km/h (0 Bft) O 90 0 min 0,0 UV-I 11,7 C 14,9 C 0,0 km/h (0 Bft)
06.06.2012 19:00 14,8 C 18,9 C 13,1 C 14,8 C 14,8 C 0,0 C 81 % 93 % 0 % 1010,2 hPa 0,0 l/m 0,0 km/h (0 Bft) O 90 0 min 0,0 UV-I 11,6 C 14,8 C 0,0 km/h (0 Bft)
06.06.2012 19:05 14,7 C 18,9 C 13,0 C 14,7 C 14,6 C 0,0 C 82 % 93 % 0 % 1009,8 hPa 0,0 l/m 0,0 km/h (0 Bft) O-SO 112 0 min 0,0 UV-I 11,7 C 14,6 C 0,0 km/h (0 Bft)
06.06.2012 19:10 14,5 C 18,9 C 13,1 C 14,5 C 14,5 C 0,0 C 82 % 93 % 0 % 1009,8 hPa 0,0 l/m 0,0 km/h (0 Bft) O-NO 67 0 min 0,0 UV-I 11,5 C 14,5 C 0,0 km/h (0 Bft)
06.06.2012 19:15 14,4 C 18,9 C 13,1 C 14,4 C 14,3 C 0,0 C 83 % 93 % 0 % 1009,8 hPa 0,0 l/m 0,0 km/h (0 Bft) O-NO 67 0 min 0,0 UV-I 11,5 C 14,3 C 0,0 km/h (0 Bft)
06.06.2012 19:20 14,3 C 18,9 C 13,1 C 14,3 C 14,3 C 0,0 C 83 % 93 % 0 % 1009,8 hPa 0,0 l/m 0,0 km/h (0 Bft) O 90 0 min 0,0 UV-I 11,5 C 14,3 C 0,0 km/h (0 Bft)
06.06.2012 19:25 14,3 C 18,9 C 12,9 C 14,2 C 14,1 C 0,0 C 83 % 93 % 0 % 1009,6 hPa 0,0 l/m 0,0 km/h (0 Bft) O 90 0 min 0,0 UV-I 11,5 C 14,1 C 0,0 km/h (0 Bft)
06.06.2012 19:30 14,3 C 18,9 C 13,0 C 14,2 C 14,1 C 0,0 C 83 % 93 % 0 % 1009,6 hPa 0,0 l/m 0,0 km/h (0 Bft) O-NO 67 0 min 0,0 UV-I 11,5 C 14,1 C 0,0 km/h (0 Bft)
06.06.2012 19:35 14,1 C 18,9 C 13,0 C 14,1 C 14,1 C 0,0 C 83 % 93 % 0 % 1009,6 hPa 0,0 l/m 0,0 km/h (0 Bft) O 90 0 min 0,0 UV-I 11,3 C 14,1 C 0,0 km/h (0 Bft)
06.06.2012 19:40 14,1 C 18,9 C 13,1 C 14,2 C 14,2 C 0,1 C 84 % 93 % 3 % 1009,6 hPa 0,0 l/m 0,0 km/h (0 Bft) O-SO 112 0 min 0,0 UV-I 11,4 C 14,2 C 0,0 km/h (0 Bft)
06.06.2012 19:45 14,1 C 18,9 C 13,1 C 14,3 C 14,3 C 0,2 C 84 % 93 % 5 % 1009,8 hPa 0,0 l/m 0,0 km/h (0 Bft) O-NO 67 0 min 0,0 UV-I 11,4 C 14,3 C 0,0 km/h (0 Bft)
06.06.2012 19:50 14,1 C 18,9 C 13,1 C 14,4 C 14,4 C 0,3 C 85 % 93 % 8 % 1009,8 hPa 0,0 l/m 0,0 km/h (0 Bft) SW 225 0 min 0,0 UV-I 11,6 C 14,4 C 1,9 km/h (1 Bft)
06.06.2012 19:55 14,0 C 18,9 C 13,1 C 14,7 C 14,7 C 0,7 C 85 % 93 % 18 % 1009,8 hPa 0,0 l/m 0,6 km/h (0 Bft) W 270 0 min 0,0 UV-I 11,5 C 14,7 C 2,1 km/h (1 Bft)
06.06.2012 20:00 14,1 C 18,9 C 13,1 C 14,8 C 14,8 C 0,7 C 85 % 93 % 18 % 1009,8 hPa 0,0 l/m 1,4 km/h (1 Bft) W-SW 247 0 min 0,0 UV-I 11,6 C 14,8 C 3,9 km/h (1 Bft)
06.06.2012 20:16 14,3 C 18,9 C 13,2 C 14,6 C 14,6 C 0,3 C 85 % 93 % 8 % 1009,8 hPa 0,0 l/m 1,8 km/h (1 Bft) O-SO 112 0 min 0,0 UV-I 11,8 C 14,6 C 2,6 km/h (1 Bft)
06.06.2012 20:25 14,4 C 18,9 C 13,3 C 14,8 C 14,8 C 0,4 C 84 % 93 % 11 % 1009,9 hPa 0,0 l/m 2,6 km/h (1 Bft) S-SW 202 0 min 0,0 UV-I 11,7 C 14,8 C 4,3 km/h (1 Bft)
06.06.2012 20:30 14,4 C 18,9 C 13,3 C 14,8 C 14,8 C 0,4 C 84 % 93 % 11 % 1009,9 hPa 0,0 l/m 3,5 km/h (1 Bft) SW 225 0 min 0,0 UV-I 11,7 C 14,8 C 3,5 km/h (1 Bft)
06.06.2012 20:35 14,4 C 18,9 C 13,4 C 14,8 C 14,8 C 0,4 C 84 % 93 % 11 % 1009,9 hPa 0,0 l/m 3,4 km/h (1 Bft) SW 225 0 min 0,0 UV-I 11,7 C 14,8 C 4,8 km/h (1 Bft)
06.06.2012 20:40 14,5 C 18,9 C 13,4 C 14,6 C 14,6 C 0,1 C 84 % 93 % 3 % 1009,9 hPa 0,0 l/m 3,1 km/h (1 Bft) W 270 0 min 0,0 UV-I 11,8 C 14,6 C 2,4 km/h (1 Bft)
06.06.2012 20:45 14,4 C 18,9 C 13,4 C 14,4 C 14,4 C 0,0 C 84 % 93 % 0 % 1009,9 hPa 0,0 l/m 2,6 km/h (1 Bft) W 270 0 min 0,0 UV-I 11,7 C 14,4 C 3,1 km/h (1 Bft)
06.06.2012 20:50 14,5 C 18,9 C 13,4 C 14,4 C 14,3 C 0,0 C 84 % 93 % 0 % 1009,9 hPa 0,0 l/m 2,4 km/h (1 Bft) W-SW 247 0 min 0,0 UV-I 11,8 C 14,3 C 2,9 km/h (1 Bft)
06.06.2012 20:55 14,4 C 18,9 C 13,3 C 14,3 C 14,1 C 0,0 C 84 % 93 % 0 % 1009,9 hPa 0,0 l/m 1,4 km/h (1 Bft) S 180 0 min 0,0 UV-I 11,7 C 14,1 C 0,0 km/h (0 Bft)
06.06.2012 21:00 14,3 C 18,9 C 13,2 C 14,2 C 13,9 C 0,0 C 84 % 93 % 0 % 1009,9 hPa 0,0 l/m 0,5 km/h (0 Bft) S 180 0 min 0,0 UV-I 11,6 C 13,9 C 0,0 km/h (0 Bft)
06.06.2012 21:04 14,1 C 19,0 C 13,2 C 13,8 C 13,2 C 0,0 C 84 % 93 % 0 % 1010,4 hPa 0,0 l/m 0,0 km/h (0 Bft) S 180 0 min 0,0 UV-I 11,4 C 13,2 C 0,0 km/h (0 Bft)
06.06.2012 21:09 13,9 C 19,1 C 13,1 C 13,5 C 12,8 C 0,0 C 84 % 93 % 0 % 1010,4 hPa 0,0 l/m 0,0 km/h (0 Bft) SO 135 0 min 0,0 UV-I 11,2 C 12,8 C 0,0 km/h (0 Bft)
06.06.2012 21:14 13,6 C 19,1 C 13,1 C 13,3 C 12,6 C 0,0 C 84 % 93 % 0 % 1010,4 hPa 0,0 l/m 0,0 km/h (0 Bft) SO 135 0 min 0,0 UV-I 10,9 C 12,6 C 0,0 km/h (0 Bft)
06.06.2012 21:21 13,6 C 19,1 C 13,1 C 13,3 C 12,6 C 0,0 C 84 % 93 % 0 % 1010,4 hPa 0,0 l/m 0,0 km/h (0 Bft) SO 135 0 min 0,0 UV-I 10,9 C 12,6 C 0,0 km/h (0 Bft)
06.06.2012 21:25 13,4 C 19,1 C 13,0 C 13,1 C 12,4 C 0,0 C 85 % 93 % 0 % 1010,2 hPa 0,0 l/m 0,0 km/h (0 Bft) SO 135 0 min 0,0 UV-I 10,9 C 12,4 C 0,0 km/h (0 Bft)
06.06.2012 21:30 13,3 C 19,1 C 13,1 C 13,0 C 12,4 C 0,0 C 85 % 93 % 0 % 1010,2 hPa 0,0 l/m 0,0 km/h (0 Bft) SO 135 0 min 0,0 UV-I 10,8 C 12,4 C 0,0 km/h (0 Bft)
06.06.2012 21:35 13,2 C 19,1 C 13,0 C 13,0 C 12,5 C 0,0 C 85 % 93 % 0 % 1010,2 hPa 0,0 l/m 0,0 km/h (0 Bft) SO 135 0 min 0,0 UV-I 10,7 C 12,5 C 0,0 km/h (0 Bft)
06.06.2012 21:40 13,1 C 19,1 C 13,0 C 12,9 C 12,6 C 0,0 C 86 % 93 % 0 % 1010,2 hPa 0,0 l/m 0,0 km/h (0 Bft) S-SW 202 0 min 0,0 UV-I 10,8 C 12,6 C 0,0 km/h (0 Bft)
06.06.2012 21:45 13,0 C 19,1 C 13,0 C 12,9 C 12,7 C 0,0 C 86 % 93 % 0 % 1010,3 hPa 0,0 l/m 0,0 km/h (0 Bft) SW 225 0 min 0,0 UV-I 10,7 C 12,7 C 0,0 km/h (0 Bft)
06.06.2012 21:50 13,0 C 19,2 C 12,9 C 12,9 C 12,7 C 0,0 C 86 % 93 % 0 % 1010,3 hPa 0,0 l/m 0,0 km/h (0 Bft) SO 135 0 min 0,0 UV-I 10,7 C 12,7 C 0,0 km/h (0 Bft)
06.06.2012 21:55 12,9 C 19,2 C 12,9 C 12,9 C 12,8 C 0,0 C 87 % 93 % 0 % 1010,3 hPa 0,0 l/m 0,0 km/h (0 Bft) SO 135 0 min 0,0 UV-I 10,8 C 12,8 C 0,0 km/h (0 Bft)
06.06.2012 22:00 12,8 C 19,2 C 12,9 C 12,9 C 12,9 C 0,1 C 87 % 93 % 0 % 1010,3 hPa 0,0 l/m 0,0 km/h (0 Bft) SO 135 0 min 0,0 UV-I 10,7 C 12,9 C 0,0 km/h (0 Bft)
06.06.2012 22:04 12,9 C 19,2 C 12,9 C 12,9 C 12,9 C 0,0 C 87 % 93 % 0 % 1010,4 hPa 0,0 l/m 0,0 km/h (0 Bft) W-NW 292 0 min 0,0 UV-I 10,8 C 12,9 C 0,0 km/h (0 Bft)
06.06.2012 22:09 12,8 C 19,2 C 12,9 C 12,9 C 12,9 C 0,1 C 88 % 93 % 0 % 1010,4 hPa 0,0 l/m 0,0 km/h (0 Bft) W-NW 292 0 min 0,0 UV-I 10,9 C 12,9 C 0,0 km/h (0 Bft)
06.06.2012 22:14 12,8 C 19,2 C 12,9 C 13,0 C 13,0 C 0,2 C 88 % 93 % 0 % 1010,4 hPa 0,0 l/m 0,0 km/h (0 Bft) W-NW 292 0 min 0,0 UV-I 10,9 C 13,0 C 0,0 km/h (0 Bft)
06.06.2012 22:21 12,8 C 19,2 C 12,9 C 13,0 C 13,0 C 0,2 C 88 % 93 % 0 % 1010,4 hPa 0,0 l/m 0,0 km/h (0 Bft) W-NW 292 0 min 0,0 UV-I 10,9 C 13,0 C 0,0 km/h (0 Bft)
06.06.2012 22:25 12,8 C 19,2 C 12,8 C 12,9 C 12,9 C 0,1 C 88 % 93 % 0 % 1010,9 hPa 0,0 l/m 0,0 km/h (0 Bft) W-SW 247 0 min 0,0 UV-I 10,9 C 12,9 C 0,0 km/h (0 Bft)
06.06.2012 22:30 12,7 C 19,3 C 12,8 C 12,7 C 12,7 C 0,0 C 88 % 93 % 0 % 1010,9 hPa 0,0 l/m 0,0 km/h (0 Bft) S-SW 202 0 min 0,0 UV-I 10,8 C 12,7 C 0,0 km/h (0 Bft)
06.06.2012 22:35 12,6 C 19,3 C 12,8 C 12,7 C 12,7 C 0,1 C 88 % 93 % 0 % 1010,9 hPa 0,0 l/m 0,0 km/h (0 Bft) W 270 0 min 0,0 UV-I 10,7 C 12,7 C 0,0 km/h (0 Bft)
06.06.2012 22:40 12,6 C 19,2 C 12,8 C 12,8 C 12,8 C 0,2 C 88 % 93 % 0 % 1010,9 hPa 0,0 l/m 0,0 km/h (0 Bft) W-SW 247 0 min 0,0 UV-I 10,7 C 12,8 C 0,0 km/h (0 Bft)
06.06.2012 22:45 12,7 C 19,2 C 12,8 C 12,9 C 12,9 C 0,2 C 88 % 94 % 0 % 1010,2 hPa 0,0 l/m 0,0 km/h (0 Bft) SW 225 0 min 0,0 UV-I 10,8 C 12,9 C 0,0 km/h (0 Bft)
06.06.2012 22:50 12,7 C 19,2 C 12,8 C 12,9 C 12,9 C 0,2 C 88 % 94 % 0 % 1010,2 hPa 0,0 l/m 0,0 km/h (0 Bft) SW 225 0 min 0,0 UV-I 10,8 C 12,9 C 0,0 km/h (0 Bft)
06.06.2012 22:55 12,7 C 19,2 C 12,8 C 12,9 C 12,9 C 0,2 C 88 % 94 % 0 % 1010,2 hPa 0,0 l/m 0,0 km/h (0 Bft) SW 225 0 min 0,0 UV-I 10,8 C 12,9 C 0,0 km/h (0 Bft)
06.06.2012 23:00 12,7 C 19,2 C 12,8 C 12,9 C 12,9 C 0,2 C 88 % 94 % 0 % 1010,2 hPa 0,0 l/m 0,0 km/h (0 Bft) SW 225 0 min 0,0 UV-I 10,8 C 12,9 C 0,0 km/h (0 Bft)
06.06.2012 23:04 12,6 C 19,2 C 12,9 C 12,8 C 12,8 C 0,2 C 88 % 94 % 0 % 1010,2 hPa 0,0 l/m 0,0 km/h (0 Bft) W 270 0 min 0,0 UV-I 10,7 C 12,8 C 0,0 km/h (0 Bft)
06.06.2012 23:09 12,5 C 19,3 C 12,8 C 12,7 C 12,7 C 0,2 C 88 % 94 % 0 % 1010,2 hPa 0,0 l/m 0,0 km/h (0 Bft) W 270 0 min 0,0 UV-I 10,6 C 12,7 C 0,0 km/h (0 Bft)
06.06.2012 23:14 12,5 C 19,3 C 12,9 C 12,5 C 12,5 C 0,0 C 88 % 94 % 0 % 1010,2 hPa 0,0 l/m 0,0 km/h (0 Bft) W 270 0 min 0,0 UV-I 10,6 C 12,5 C 0,0 km/h (0 Bft)
06.06.2012 23:21 12,5 C 19,3 C 12,9 C 12,5 C 12,5 C 0,0 C 88 % 94 % 0 % 1010,2 hPa 0,0 l/m 0,0 km/h (0 Bft) W 270 0 min 0,0 UV-I 10,6 C 12,5 C 0,0 km/h (0 Bft)
06.06.2012 23:25 12,4 C 19,3 C 12,8 C 12,4 C 12,4 C 0,0 C 88 % 94 % 0 % 1010,2 hPa 0,0 l/m 0,0 km/h (0 Bft) W 270 0 min 0,0 UV-I 10,5 C 12,4 C 0,0 km/h (0 Bft)
06.06.2012 23:35 12,4 C 19,3 C 12,8 C 12,3 C 12,2 C 0,0 C 88 % 94 % 0 % 1010,2 hPa 0,0 l/m 0,0 km/h (0 Bft) W 270 0 min 0,0 UV-I 10,5 C 12,2 C 0,0 km/h (0 Bft)
06.06.2012 23:40 12,4 C 19,3 C 12,8 C 12,3 C 12,2 C 0,0 C 88 % 94 % 0 % 1010,2 hPa 0,0 l/m 0,0 km/h (0 Bft) W 270 0 min 0,0 UV-I 10,5 C 12,2 C 0,0 km/h (0 Bft)
06.06.2012 23:45 12,3 C 19,3 C 12,8 C 12,3 C 12,2 C 0,0 C 88 % 94 % 0 % 1010,3 hPa 0,0 l/m 0,0 km/h (0 Bft) W 270 0 min 0,0 UV-I 10,4 C 12,2 C 0,0 km/h (0 Bft)
06.06.2012 23:50 12,3 C 19,3 C 12,8 C 12,3 C 12,2 C 0,0 C 89 % 94 % 0 % 1010,3 hPa 0,0 l/m 0,0 km/h (0 Bft) W 270 0 min 0,0 UV-I 10,5 C 12,2 C 0,0 km/h (0 Bft)
06.06.2012 23:55 12,3 C 19,3 C 12,7 C 12,3 C 12,2 C 0,0 C 89 % 94 % 0 % 1010,3 hPa 0,0 l/m 0,0 km/h (0 Bft) W 270 0 min 0,0 UV-I 10,5 C 12,2 C 0,0 km/h (0 Bft)
_ Min-Zeit 04:45 09:16 05:00 04:21 04:09 00:00 12:31 14:40 00:00 18:25 - 00:11 - - - 00:00 04:45 04:09 00:00
Minimum _ 3,2 C 17,1 C 8,4 C 3,0 C 2,5 C 0,0 C 58 % 91 % 0 % 1009,6 hPa - 0,0 km/h (0 Bft) - - - 0,0 UV-I 1,6 C 2,5 C 0,0 km/h (0 Bft)
_ Max-Zeit 12:55 22:30 15:18 12:50 12:50 11:29 07:21 05:50 11:16 00:11 16:45 14:15 - - 11:16 00:00 17:55 12:50 14:15
Maximum _ 16,9 C 19,3 C 13,9 C 21,3 C 21,3 C 4,9 C 92 % 95 % 100 % 1018,9 hPa 0,7 l/m 5,8 km/h
O-NO (2 Bft)
- - 16 min 0,0 UV-I 12,6 C 21,3 C 11,9 km/h
O-NO (2 Bft)
Durchschnitt _ 11,1 C 18,1 C 11,5 C 12,1 C 11,9 C 1,2 C 80 % 93 % 29 % 1013,7 hPa #0,7 l/m 0,7 km/h (0 Bft) O-NO - #2:25 h 0,0 UV-I 7,5 C 11,9 C 1,1 km/h (1 Bft)
2012 www.wetterstation-wechselburg.de